Weather History for KTKI - September, 2013

Change the Weather History Date:

Sunday, September 29, 2013

  Actual Average (KADS) Record (KADS)
Temperature  
Mean Temperature 72 °F -  
Max Temperature 82 °F 82 °F 98 °F (2011)
Min Temperature 61 °F 63 °F 55 °F (1996)
Cooling Degree Days 6    
Growing Degree Days 22 (Base 50)    
Moisture  
Dew Point 55 °F    
Average Humidity 63    
Maximum Humidity 93    
Minimum Humidity 26    
Precipitation  
Precipitation 0.00 in - - ()
Sea Level Pressure  
Sea Level Pressure 30.00 in    
Wind  
Wind Speed 8 mph (North)    
Max Wind Speed 14 mph    
Max Gust Speed -    
Visibility 10 miles    
Events      
Averages and records for this station are not official NWS values.
T = Trace of Precipitation, MM = Missing Value Source: NWS Daily Summary

Daily Weather History Graph

Daily Weather History Graph

Search for Another Location

Airport or City:

Trip Planner

Search our weather history database for the weather conditions in past years. The results will help you decide how hot, cold, wet, or windy it might be!

Date:

Astronomy

Sep. 29, 2013 Rise Set
Actual Time 7:19 AM CDT 7:13 PM CDT
Civil Twilight 6:54 AM CDT 7:37 PM CDT
Nautical Twilight 6:25 AM CDT 8:06 PM CDT
Astronomical Twilight 5:57 AM CDT 8:35 PM CDT
Moon 2:15 AM CDT (9/29) 3:57 PM CDT (9/29)
Length of Visible Light 12h 43m
Length of Day
11h 53m
Waning Crescent, 27% of the Moon is Illuminated
Sep 29
Waning Crescent
Oct 4
New
Oct 11
First Quarter
Oct 18
Full
Oct 26
Last Quarter

Hourly Weather History & Observations

Time (CDT) Temp. Dew Point Humidity Pressure Visibility Wind Dir Wind Speed Gust Speed Precip Events Conditions
12:20 AM 66.2 °F 60.8 °F 83% 30.05 in 10.0 mi North 11.5 mph - N/A   Mostly Cloudy
12:53 AM 64.9 °F 60.1 °F 84% 30.04 in 10.0 mi North 8.1 mph - N/A   Overcast
1:53 AM 64.0 °F 59.0 °F 84% 30.04 in 10.0 mi North 6.9 mph - N/A   Partly Cloudy
2:53 AM 64.0 °F 57.9 °F 80% 30.04 in 10.0 mi North 6.9 mph - N/A   Overcast
3:53 AM 64.0 °F 57.9 °F 80% 30.03 in 10.0 mi North 6.9 mph - N/A   Mostly Cloudy
4:53 AM 64.0 °F 57.0 °F 78% 30.03 in 10.0 mi North 8.1 mph - N/A   Clear
5:53 AM 63.0 °F 57.0 °F 81% 30.05 in 10.0 mi North 8.1 mph - N/A   Clear
6:53 AM 61.0 °F 59.0 °F 93% 30.04 in 10.0 mi NNW 10.4 mph - N/A   Clear
7:53 AM 63.0 °F 57.9 °F 84% 30.04 in 10.0 mi North 6.9 mph - N/A   Clear
8:53 AM 66.0 °F 57.9 °F 75% 30.05 in 10.0 mi North 11.5 mph - N/A   Clear
9:53 AM 70.0 °F 55.9 °F 61% 30.05 in 10.0 mi North 13.8 mph - N/A   Clear
10:53 AM 72.0 °F 55.9 °F 57% 30.06 in 10.0 mi North 10.4 mph - N/A   Clear
11:53 AM 75.0 °F 55.9 °F 51% 30.05 in 10.0 mi NNW 11.5 mph - N/A   Clear
12:53 PM 77.0 °F 55.0 °F 47% 30.02 in 10.0 mi North 6.9 mph - N/A   Clear
1:53 PM 77.0 °F 55.0 °F 47% 29.99 in 10.0 mi NNW 8.1 mph - N/A   Clear
2:53 PM 81.0 °F 50.0 °F 34% 29.96 in 10.0 mi NNW 10.4 mph - N/A   Partly Cloudy
3:53 PM 72.0 °F 50.0 °F 46% 29.94 in 10.0 mi North 8.1 mph - N/A   Clear
4:53 PM 82.0 °F 46.9 °F 29% 29.93 in 10.0 mi North 8.1 mph - N/A   Partly Cloudy
5:53 PM 81.0 °F 43.0 °F 26% 29.92 in 10.0 mi NNW 5.8 mph - N/A   Clear
6:53 PM 79.0 °F 45.0 °F 30% 29.92 in 10.0 mi Calm Calm - N/A   Clear
7:53 PM 75.0 °F 48.0 °F 38% 29.93 in 10.0 mi Calm Calm - N/A   Clear
8:53 PM 69.1 °F 55.0 °F 61% 29.94 in 10.0 mi Calm Calm - N/A   Clear
9:53 PM 66.9 °F 55.0 °F 66% 29.94 in 10.0 mi Calm Calm - N/A   Clear
10:53 PM 61.0 °F 55.9 °F 83% 29.95 in 10.0 mi Calm Calm - N/A   Clear
11:53 PM 63.0 °F 57.0 °F 81% 29.94 in 10.0 mi Calm Calm - N/A   Clear